Weather History for Rockwall, TX

Change the Weather History Date:

Saturday, September 14, 2013

  Actual Average (KDFW) Record (KDFW)
Temperature  
Mean Temperature 82 °F 79 °F  
Max Temperature 91 °F 89 °F 102 °F (1953)
Min Temperature 72 °F 68 °F 48 °F (1902)
Degree Days  
Heating Degree Days 0 0  
Month to date heating degree days 0  
Since 1 July heating degree days 0  
Cooling Degree Days 16 14  
Month to date cooling degree days 222  
Year to date cooling degree days 2404  
Growing Degree Days 32 (Base 50)    
Moisture  
Dew Point 62 °F    
Average Humidity 52    
Maximum Humidity 70    
Minimum Humidity 39    
Precipitation  
Precipitation 0.00 in 0.09 in 2.39 in (1934)
Month to date precipitation 1.31  
Year to date precipitation 25.42  
Sea Level Pressure  
Sea Level Pressure 29.93 in    
Wind  
Wind Speed 9 mph (ENE)    
Max Wind Speed 17 mph    
Max Gust Speed 24 mph    
Visibility 10 miles    
Events      
T = Trace of Precipitation, MM = Missing Value Source: NWS Daily Summary

Daily Weather History Graph

Daily Weather History Graph

Search for Another Location

Airport:

Trip Planner

Search our weather history database for the weather conditions in past years. The results will help you decide how hot, cold, wet, or windy it might be!

Date:

Astronomy

Sep. 14, 2013 Rise Set
Actual Time 7:08 AM CDT 7:32 PM CDT
Civil Twilight 6:44 AM CDT 7:57 PM CDT
Nautical Twilight 6:15 AM CDT 8:26 PM CDT
Astronomical Twilight 5:45 AM CDT 8:56 PM CDT
Moon 4:03 PM CDT (9/14) 1:54 AM CDT (9/14)
Length of Visible Light 13h 13m
Length of Day
12h 24m
Waxing Gibbous, 72% of the Moon is Illuminated
Sep 14
Waxing Gibbous
Sep 19
Full
Sep 26
Last Quarter
Oct 4
New
Oct 11
First Quarter

Hourly Weather History & Observations

Time (CDT) Temp. Heat Index Dew Point Humidity Pressure Visibility Wind Dir Wind Speed Gust Speed Precip Events Conditions
12:15 AM 79.5 °F - 68.9 °F 70% 29.92 in 10.0 mi NE 6.9 mph - N/A   Mostly Cloudy
12:35 AM 79.3 °F - 68.5 °F 69% 29.91 in 10.0 mi ENE 8.1 mph - N/A   Mostly Cloudy
12:55 AM 79.2 °F - 68.4 °F 69% 29.91 in 10.0 mi ENE 8.1 mph - N/A   Scattered Clouds
1:15 AM 78.8 °F - 68.0 °F 69% 29.91 in 10.0 mi East 9.2 mph - N/A   Scattered Clouds
1:35 AM 78.4 °F - 67.6 °F 69% 29.91 in 10.0 mi ENE 5.8 mph - N/A   Scattered Clouds
1:55 AM 78.3 °F - 66.9 °F 68% 29.92 in 10.0 mi ENE 6.9 mph - N/A   Scattered Clouds
2:15 AM 78.1 °F - 66.6 °F 68% 29.91 in 10.0 mi ENE 9.2 mph - N/A   Scattered Clouds
2:35 AM 77.9 °F - 66.2 °F 67% 29.91 in 10.0 mi ENE 9.2 mph - N/A   Clear
2:55 AM 77.4 °F - 65.8 °F 67% 29.91 in 10.0 mi East 8.1 mph - N/A   Clear
3:15 AM 77.2 °F - 65.7 °F 67% 29.91 in 10.0 mi East 8.1 mph - N/A   Clear
3:35 AM 77.2 °F - 64.8 °F 65% 29.91 in 10.0 mi East 6.9 mph - N/A   Clear
3:55 AM 77.9 °F - 63.0 °F 60% 29.90 in 10.0 mi East 9.2 mph - N/A   Clear
4:15 AM 78.1 °F - 62.6 °F 59% 29.90 in 10.0 mi East 10.4 mph - N/A   Clear
4:35 AM 77.7 °F - 62.6 °F 60% 29.91 in 10.0 mi East 10.4 mph - N/A   Scattered Clouds
4:55 AM 77.0 °F - 63.0 °F 62% 29.91 in 10.0 mi ENE 6.9 mph - N/A   Mostly Cloudy
5:15 AM 76.3 °F - 62.4 °F 62% 29.92 in 10.0 mi ENE 8.1 mph - N/A   Overcast
5:35 AM 76.1 °F - 61.7 °F 61% 29.92 in 10.0 mi East 10.4 mph 19.6 mph N/A   Mostly Cloudy
5:55 AM 75.4 °F - 61.3 °F 62% 29.92 in 10.0 mi East 9.2 mph - N/A   Scattered Clouds
6:15 AM 74.7 °F - 61.7 °F 64% 29.92 in 10.0 mi ENE 8.1 mph - N/A   Clear
6:35 AM 74.5 °F - 60.8 °F 62% 29.92 in 10.0 mi ENE 10.4 mph - N/A   Scattered Clouds
6:55 AM 73.8 °F - 60.3 °F 63% 29.94 in 10.0 mi ENE 5.8 mph - N/A   Clear
7:15 AM 72.7 °F - 59.9 °F 64% 29.95 in 10.0 mi ENE 8.1 mph - N/A   Clear
7:35 AM 72.5 °F - 59.0 °F 62% 29.96 in 10.0 mi ENE 6.9 mph - N/A   Clear
7:55 AM 72.5 °F - 58.5 °F 61% 29.96 in 10.0 mi ENE 8.1 mph - N/A   Clear
8:15 AM 72.5 °F - 58.3 °F 61% 29.96 in 10.0 mi ENE 10.4 mph 16.1 mph N/A   Clear
8:35 AM 73.9 °F - 58.5 °F 58% 29.96 in 10.0 mi ENE 9.2 mph - N/A   Clear
8:55 AM 75.2 °F - 58.6 °F 56% 29.97 in 10.0 mi East 10.4 mph 19.6 mph N/A   Clear
9:15 AM 76.1 °F - 57.7 °F 53% 29.97 in 10.0 mi East 17.3 mph 20.7 mph N/A   Clear
9:35 AM 76.8 °F - 57.7 °F 52% 29.97 in 10.0 mi East 13.8 mph - N/A   Clear
9:55 AM 77.9 °F - 57.7 °F 50% 29.97 in 10.0 mi East 12.7 mph - N/A   Clear
10:15 AM 78.8 °F - 57.9 °F 49% 29.98 in 10.0 mi East 15.0 mph - N/A   Clear
10:35 AM 79.7 °F - 58.3 °F 48% 29.98 in 10.0 mi East 16.1 mph 24.2 mph N/A   Clear
10:55 AM 80.4 °F 80.9 °F 58.3 °F 47% 29.98 in 10.0 mi East 15.0 mph - N/A   Clear
11:15 AM 81.7 °F 81.9 °F 59.0 °F 46% 29.99 in 10.0 mi East 13.8 mph - N/A   Clear
11:35 AM 82.0 °F 82.1 °F 59.0 °F 45% 29.99 in 10.0 mi East 13.8 mph - N/A   Clear
11:55 AM 83.1 °F 83.0 °F 59.4 °F 44% 29.98 in 10.0 mi East 13.8 mph - N/A   Clear
12:15 PM 83.8 °F 83.8 °F 59.7 °F 44% 29.98 in 10.0 mi NE 12.7 mph 17.3 mph N/A   Clear
12:35 PM 85.3 °F 85.0 °F 60.1 °F 42% 29.97 in 10.0 mi East 6.9 mph 16.1 mph N/A   Clear
12:55 PM 86.9 °F 87.0 °F 61.0 °F 42% 29.97 in 10.0 mi ENE 9.2 mph - N/A   Clear
1:15 PM 86.9 °F 86.7 °F 60.8 °F 41% 29.96 in 10.0 mi NE 8.1 mph - N/A   Clear
1:35 PM 87.1 °F 87.2 °F 61.2 °F 42% 29.95 in 10.0 mi ENE 5.8 mph - N/A   Clear
1:55 PM 86.9 °F 87.0 °F 61.2 °F 42% 29.95 in 10.0 mi East 6.9 mph - N/A   Clear
2:15 PM 88.9 °F 89.4 °F 62.4 °F 41% 29.94 in 10.0 mi East 8.1 mph - N/A   Clear
2:35 PM 89.6 °F 90.1 °F 62.4 °F 40% 29.93 in 10.0 mi NE 6.9 mph - N/A   Clear
2:55 PM 89.8 °F 90.0 °F 62.1 °F 39% 29.92 in 10.0 mi NE 8.1 mph - N/A   Clear
3:15 PM 90.5 °F 91.1 °F 62.6 °F 39% 29.92 in 10.0 mi ENE 9.2 mph 16.1 mph N/A   Clear
3:35 PM 90.9 °F 91.6 °F 62.4 °F 39% 29.91 in 10.0 mi East 9.2 mph - N/A   Clear
3:55 PM 91.0 °F 91.9 °F 62.6 °F 39% 29.90 in 10.0 mi East 8.1 mph 18.4 mph N/A   Clear
4:15 PM 91.2 °F 92.2 °F 63.1 °F 39% 29.89 in 10.0 mi East 8.1 mph - N/A   Clear
4:35 PM 91.4 °F 92.4 °F 63.5 °F 39% 29.89 in 10.0 mi ENE 8.1 mph - N/A   Clear
4:55 PM 90.9 °F 91.6 °F 63.0 °F 39% 29.89 in 10.0 mi NE 9.2 mph - N/A   Clear
5:15 PM 91.0 °F 91.9 °F 63.0 °F 39% 29.89 in 10.0 mi ENE 9.2 mph - N/A   Clear
5:35 PM 90.7 °F 91.7 °F 63.0 °F 40% 29.89 in 10.0 mi East 8.1 mph - N/A   Clear
5:55 PM 90.3 °F 91.2 °F 62.8 °F 40% 29.88 in 10.0 mi East 9.2 mph - N/A   Clear
6:15 PM 90.0 °F 90.6 °F 62.4 °F 40% 29.89 in 10.0 mi East 8.1 mph 16.1 mph N/A   Clear
6:35 PM 89.2 °F 89.6 °F 62.2 °F 40% 29.89 in 10.0 mi East 8.1 mph - N/A   Clear
6:55 PM 88.7 °F 88.8 °F 61.7 °F 40% 29.89 in 10.0 mi East 10.4 mph - N/A   Clear
7:15 PM 87.8 °F 87.9 °F 61.7 °F 41% 29.89 in 10.0 mi East 10.4 mph - N/A   Clear
7:35 PM 86.4 °F 86.5 °F 61.5 °F 43% 29.89 in 10.0 mi East 9.2 mph - N/A   Clear
7:55 PM 85.3 °F 85.7 °F 61.9 °F 45% 29.89 in 10.0 mi East 6.9 mph - N/A   Clear
8:15 PM 84.6 °F 85.0 °F 61.7 °F 46% 29.90 in 10.0 mi East 5.8 mph - N/A   Clear
8:35 PM 83.7 °F 84.3 °F 61.9 °F 48% 29.91 in 10.0 mi East 8.1 mph - N/A   Clear
8:55 PM 82.9 °F 83.7 °F 62.2 °F 49% 29.91 in 10.0 mi ENE 8.1 mph - N/A   Clear
9:15 PM 82.6 °F 83.2 °F 61.7 °F 49% 29.92 in 10.0 mi ENE 8.1 mph - N/A   Clear
9:35 PM 82.0 °F 82.7 °F 61.3 °F 49% 29.93 in 10.0 mi East 8.1 mph - N/A   Clear
9:55 PM 81.5 °F 82.2 °F 61.0 °F 50% 29.94 in 10.0 mi East 6.9 mph - N/A   Clear
10:15 PM 80.6 °F 81.5 °F 61.2 °F 51% 29.95 in 10.0 mi East 8.1 mph - N/A   Clear
10:35 PM 80.2 °F 81.1 °F 60.8 °F 51% 29.95 in 10.0 mi East 9.2 mph - N/A   Clear
10:55 PM 79.9 °F - 60.8 °F 52% 29.96 in 10.0 mi East 6.9 mph - N/A   Clear
11:15 PM 78.8 °F - 60.8 °F 54% 29.96 in 10.0 mi East 6.9 mph - N/A   Clear
11:35 PM 78.8 °F - 60.8 °F 54% 29.96 in 10.0 mi East 8.1 mph - N/A   Clear
11:55 PM 78.1 °F - 60.8 °F 55% 29.95 in 10.0 mi East 8.1 mph - N/A   Clear